Regional Weather Roundup
Issued by NWS

Home | Current Version | Previous Version | Text Only | Print | Product List | Glossary On
Versions: 1 2 3 4 5 6 7 8 9 10 11 12 13 14 15 16 17 18 19 20 21 22 23 24 25 26 27 28 29 30 31 32 33 34 35 36 37 38 39 40 41 42 43 44 45 46 47 48 49 50
000
ASUS43 KLSX 310307
RWRMO

WEATHER SUMMARY FOR MISSOURI
NATIONAL WEATHER SERVICE SPRINGFIELD MO
1000 PM CDT THU JUL 30 2015

NOTE: "FAIR" INDICATES FEW OR NO CLOUDS BELOW 12,000 FEET WITH NO
       SIGNIFICANT WEATHER AND/OR OBSTRUCTIONS TO VISIBILITY.
       CURRENT SKY AND/OR WEATHER CONDITIONS ARE NOT AVAILABLE FOR
       CHILLICOTHE AND FARMINGTON.

MOZ001>031-035>038-043-044-053-054-310400-
...NORTHERN AND WESTERN MISSOURI...

CITY           SKY/WX    TMP DP  RH WIND       PRES   REMARKS
KANSAS CTY INT PTCLDY    76  60  57 CALM      30.15R
KANSAS C DTWN  CLEAR     78  62  57 NW3       30.14R
LEE`S SUMMIT   PTCLDY    74  62  66 SE3       30.16R
ST JOSEPH      CLEAR     73  69  87 CALM      30.14R
CHILLICOTHE      N/A     73  69  87 CALM      30.15R
KIRKSVILLE     CLEAR     70  66  87 W5        30.14R

$$
MOZ066>068-077>081-088>096-101>105-310400-
...SOUTHWEST MISSOURI...

CITY           SKY/WX    TMP DP  RH WIND       PRES   REMARKS
SPRINGFIELD    CLEAR     77  63  61 E7        30.16R
JOPLIN         PTCLDY    75  65  70 E3        30.14R

$$
MOZ032>034-039>042-045>050-055>058-069>072-310400-
...CENTRAL MISSOURI...

CITY           SKY/WX    TMP DP  RH WIND       PRES   REMARKS
COLUMBIA       PTCLDY    76  68  76 CALM      30.15R
JEFFERSON CITY PTCLDY    72  66  81 CALM      30.13R
ROLLA          CLEAR     69  62  78 CALM      30.15R HAZE
SEDALIA        CLEAR     75  65  70 CALM      30.16R
WHITEMAN AFB   CLEAR     73  66  77 CALM      30.14R
WARRENSBURG    CLEAR     73  66  78 CALM      30.15R
OSAGE BEACH    CLEAR     70  64  83 CALM      30.15R

$$
MOZ051-052-059>065-310400-
...EAST CENTRAL MISSOURI...

CITY           SKY/WX    TMP DP  RH WIND       PRES   REMARKS
ST LOUIS INTL  NOT AVBL
SPIRIT OF STL  PTCLDY    73  70  90 CALM      30.12R
ST CHARLES     CLEAR     77  70  79 W3        30.11R

$$
MOZ072>076-082>087-097>100-106>115-310400-
...SOUTH CENTRAL AND SOUTHEAST MISSOURI...

CITY           SKY/WX    TMP DP  RH WIND       PRES   REMARKS
CAPE GIRARDEAU MOCLDY    71  69  93 SW3       30.11R
FARMINGTON     PTCLDY    72  66  83 CALM      30.18S
POPLAR BLUFF   CLEAR     73  69  87 CALM      30.10R
WEST PLAINS    PTCLDY    70  65  84 CALM      30.17R

$$


USA.gov is the U.S. government's official web portal to all federal, state and local government web resources and services.